Location: Chantarel
(45.1638°N, 1.7873°E)
Time: 20:48:45
(UTC+00:00)

BREEZE-M DEB (TANK) - Pass Details

Date: 03 March 2021
Orbit: 334 x 11905 km, 49.7° (Epoch: 12 April)

Event Time Altitude Azimuth Distance (km) Brightness Sun altitude
Rises 18:58:53 0° 212° (SSW) 2,285 7.0 -14.2°
Reaches altitude 10° 19:01:06 10° 194° (SSW) 1,271 5.4 -14.5°
Enters shadow 19:02:33 20° 156° (SSE) 860 4.1 -14.8°
